SCP
0 0 0 0 1 0 0 0 1 1 1 1 1 1 1 2 3 4 4 5 5 4 4 4 5 5 5 4 3 3 3 5 6 7 7 7 7 6 5 5 4 4 4 3
0 0 0 1 1 1 1 1 1 1 1 1 1 1 2 3 4 4 4 4 4 4 4 4 5 5 5 5 4 4 4 4 6 7 8 8 7 6 5 5 5 4 4 4
0 0 0 1 1 1 1 1 1 2 2 2 2 2 3 3 4 4 4 4 4 4 4 4 4 4 4 5 5 5 4 4 5 6 7 7 7 7 7 6 6 6 5 5
0 1 1 1 1 1 1 1 2 2 3 3 3 3 3 3 3 4 4 4 4 4 4 4 4 3 3 4 5 6 5 5 5 5 6 6 6 7 7 8 7 6 6 5
0 1 1 1 1 1 1 2 2 2 3 3 3 3 3 3 3 4 4 5 5 5 5 5 4 4 4 5 5 5 6 6 5 4 4 4 5 6 6 6 6 5 5 5
0 1 1 1 1 1 1 2 2 2 2 3 3 3 3 3 4 5 5 5 5 5 6 6 7 7 7 6 5 5 6 6 6 4 4 4 4 5 5 5 4 5 5 4
0 1 1 1 1 1 2 2 2 3 3 3 3 3 4 4 5 5 5 4 4 5 7 7 8 8 8 7 6 6 6 6 6 5 4 4 4 5 5 5 5 5 5 5
1 1 1 1 1 1 2 2 3 4 5 5 5 5 5 5 5 4 3 3 4 5 6 7 7 7 7 7 7 7 7 6 6 6 5 4 5 5 6 6 6 6 6 6
1 1 1 1 1 2 2 3 4 5 6 6 5 6 6 5 4 3 2 3 3 4 5 5 6 6 7 7 7 7 7 6 6 6 6 5 5 6 6 7 7 8 8 7
1 1 1 1 2 2 3 4 5 5 5 4 4 4 4 4 3 3 2 2 3 3 4 5 5 6 7 7 7 6 6 6 6 7 7 7 7 7 7 8 9 9 9 9
1 1 1 1 2 2 3 3 4 4 3 3 3 3 5 5 4 3 3 3 3 4 5 5 6 6 7 6 6 5 5 5 5 5 7 9 10 9 9 9 9 9 8 8
1 1 1 2 1 1 2 2 2 2 3 3 3 4 6 7 5 3 3 4 5 7 7 8 8 8 7 6 6 5 5 5 4 4 5 8 9 9 9 7 5 5 5 5
1 1 1 1 1 1 1 1 2 2 3 3 4 4 6 8 7 5 5 6 8 9 10 12 14 13 10 8 7 6 6 6 4 4 4 5 6 6 5 3 2 2 2 1
1 1 1 1 1 1 1 1 2 2 3 4 5 6 7 8 8 8 8 9 10 11 13 16 19 17 13 10 9 8 7 6 5 4 4 4 4 3 2 2 2 2 1 1
1 1 1 0 1 1 2 2 2 2 3 4 5 6 7 8 9 9 10 11 12 13 15 19 21 19 16 13 11 9 7 6 5 4 3 3 3 2 2 2 2 2 2 2
2 2 1 1 1 2 2 2 2 2 2 3 3 4 5 6 6 7 8 9 11 13 15 17 18 17 15 13 11 9 7 5 4 4 3 3 2 2 2 2 2 2 2 2
1 2 3 2 2 3 3 2 1 1 1 1 2 3 3 3 3 4 4 5 7 10 11 11 12 11 10 10 10 8 7 5 4 3 3 3 2 2 3 3 3 2 2 1
1 3 4 4 3 3 3 2 1 1 1 1 1 2 3 3 3 2 2 3 4 5 5 6 6 5 5 5 6 6 6 5 4 3 3 3 2 3 3 3 3 2 1 1
1 4 6 5 4 3 2 1 1 1 1 1 1 2 3 3 2 2 1 1 1 2 2 2 2 2 2 2 3 3 4 3 3 3 3 2 2 3 3 3 3 2 1 0
2 4 5 4 3 2 1 1 1 1 1 1 1 2 3 3 2 2 1 1 1 1 1 1 1 1 2 1 2 2 2 2 2 2 3 3 2 2 2 2 2 2 1 1
2 3 4 3 2 1 1 1 1 1 1 1 1 1 2 2 2 1 1 1 1 1 1 1 1 1 1 1 1 2 2 2 2 2 3 3 3 2 2 3 2 2 1 1
2 3 4 3 2 1 1 1 1 1 1 1 1 1 1 1 1 1 1 1 1 0 0 0 1 0 0 1 1 2 3 3 3 3 4 4 3 3 3 3 2 2 1 1
2 2 3 3 2 1 2 2 1 1 1 1 1 1 1 1 1 1 1 1 0 0 0 0 0 0 0 0 1 2 3 3 3 4 4 4 4 4 3 3 2 1 2 2
1 2 2 1 1 1 1 2 1 1 1 1 1 1 2 1 1 1 1 1 0 0 0 0 0 0 0 0 1 2 3 4 4 3 3 3 4 4 3 3 3 3 3 3
1 1 1 1 1 1 1 2 1 1 1 1 1 1 1 1 1 1 1 1 0 0 0 0 0 0 0 0 1 1 2 3 3 2 2 2 2 2 3 3 4 3 4 4
1 1 1 1 1 1 2 2 1 1 1 1 1 1 2 2 2 1 1 1 0 0 0 0 0 0 0 0 1 1 1 1 1 1 1 1 1 1 2 2 2 2 3 3
1 1 1 1 1 1 2 2 1 1 1 1 1 1 2 2 2 2 1 1 1 0 0 0 0 0 0 0 0 1 0 0 0 0 0 1 1 1 1 1 1 1 1 2
Wind_Speed
7 6 6 7 8 8 10 10 9 7 6 3 2 1 1 0 0 1 1 0 1 1 1 1 1 1 2 2 3 4 5 5 5 5 4 4 4 4 4 4 4 4 4 4
8 8 8 8 7 8 9 8 9 8 6 2 1 1 0 0 1 1 1 0 0 0 1 1 2 2 2 2 2 4 5 5 4 4 4 4 4 4 4 4 4 4 4 4
8 8 10 11 8 8 8 7 8 8 4 1 3 2 2 1 2 1 1 1 1 1 1 1 2 2 2 2 2 3 4 4 4 4 4 4 4 4 4 4 4 4 4 4
7 8 13 3 2 6 8 6 5 4 3 3 3 3 2 1 2 2 2 1 1 2 1 1 1 1 1 2 2 3 3 3 3 3 3 3 3 3 4 3 4 4 4 4
8 10 9 5 4 6 8 6 3 4 3 3 3 4 2 2 2 2 1 1 2 2 1 1 0 0 1 2 2 2 3 3 3 3 3 3 3 3 3 3 3 3 3 3
8 10 10 3 2 3 8 8 1 2 3 3 4 6 2 3 2 2 1 1 1 1 1 1 1 0 1 2 2 2 3 3 3 3 4 4 3 3 2 2 3 3 2 2
10 10 5 2 1 5 8 1 1 2 3 3 3 5 4 3 2 1 1 1 1 1 1 2 1 1 0 1 2 2 2 2 2 2 3 3 2 2 2 2 2 2 2 2
8 11 5 4 2 2 3 3 2 2 3 3 3 2 2 2 2 1 1 2 1 1 1 2 2 1 1 2 2 2 1 1 1 2 2 2 1 2 2 2 2 2 2 2
4 2 4 2 2 3 2 2 3 3 3 3 2 2 2 1 1 1 1 1 1 1 1 2 2 2 2 2 2 1 1 0 1 1 1 1 2 2 2 2 2 2 1 1
4 2 1 1 0 1 1 2 3 3 3 2 2 2 2 1 1 1 1 1 1 1 2 2 2 2 2 2 1 1 0 0 0 1 1 1 1 2 2 2 2 1 1 1
6 3 3 3 1 1 1 2 3 3 3 3 3 3 2 2 1 1 1 1 1 1 1 2 2 2 2 1 1 1 0 0 1 1 1 1 1 1 1 1 1 2 2 2
5 2 4 2 2 2 2 2 3 3 3 3 2 2 3 2 2 1 1 1 1 1 1 1 1 2 2 1 0 0 1 1 1 1 1 1 1 1 3 1 2 1 2 3
5 4 5 4 3 3 3 3 3 3 3 2 2 2 2 2 2 2 1 1 1 1 1 1 1 1 1 1 1 1 1 1 1 1 1 1 1 1 0 1 1 1 1 1
5 5 6 6 5 5 4 4 3 3 3 2 2 2 2 2 1 2 2 1 1 1 1 1 1 1 2 1 1 1 1 1 1 1 1 1 1 1 1 1 0 0 0 1
7 7 7 6 6 5 4 4 4 3 2 2 2 2 1 1 1 1 1 1 1 1 0 1 1 2 2 1 1 1 1 0 1 1 1 1 1 1 1 1 1 0 1 2
7 7 7 7 6 6 5 5 5 3 2 2 2 2 2 1 1 1 1 1 1 0 1 1 1 2 2 2 2 1 0 1 1 1 1 0 1 1 1 1 1 1 0 0
7 7 7 7 7 6 5 4 4 3 2 2 1 1 1 2 1 1 1 1 1 0 0 0 1 1 2 2 2 1 0 1 1 1 1 0 1 1 1 1 1 1 0 1
7 7 6 5 4 4 4 3 3 3 2 1 2 2 2 2 2 1 1 1 1 1 0 0 1 1 1 2 1 1 1 1 1 1 1 1 1 1 1 1 1 1 0 1
4 4 4 4 3 3 3 3 3 2 2 2 3 2 2 2 2 2 2 2 2 2 1 0 1 2 1 1 2 1 1 1 1 1 1 1 2 2 1 1 1 1 1 1
1 1 1 1 2 2 2 3 3 2 2 3 3 2 3 2 2 2 2 2 1 1 1 1 2 2 1 1 3 2 1 1 1 1 1 2 2 2 2 2 2 2 2 2
1 1 0 0 1 2 2 3 3 3 3 3 3 3 3 3 3 3 3 2 1 0 1 2 3 2 1 1 3 2 2 1 1 2 1 2 2 2 2 2 2 2 2 2
2 1 1 1 1 1 1 2 3 3 3 3 3 3 3 3 4 3 3 2 1 1 2 2 2 1 1 3 3 3 2 2 1 1 2 2 2 2 2 3 2 2 2 2
2 2 2 2 2 1 1 1 2 2 3 3 4 4 3 3 3 3 2 1 1 1 2 1 1 1 2 4 3 2 2 2 2 2 2 2 2 2 2 3 3 3 2 2
2 2 2 2 1 2 2 2 2 2 3 3 3 3 4 3 3 3 1 2 2 2 2 1 2 2 5 4 2 2 2 2 2 2 2 2 2 2 2 3 3 2 2 3
2 2 2 2 2 2 2 2 2 2 3 3 3 3 3 3 2 1 1 1 2 2 2 3 5 5 5 3 2 2 2 2 2 2 2 2 3 2 2 2 2 2 2 2
1 2 1 2 2 2 2 2 2 2 2 1 1 1 1 1 2 2 2 2 3 3 3 2 3 4 3 2 2 2 2 2 2 2 2 3 4 3 3 3 3 2 2 2
2 2 2 2 2 2 2 2 2 2 2 1 1 1 1 1 1 1 2 2 2 3 2 2 3 3 3 2 2 2 2 2 2 2 2 2 3 3 2 2 2 2 2 1
Wind_Direction
255 259 254 242 234 227 241 260 266 262 267 283 277 299 314 334 144 119 110 120 124 173 166 198 210 209 219 233 219 215 217 221 222 224 225 230 234 236 239 244 244 247 249 252
233 234 240 245 245 236 237 249 257 265 268 319 281 296 171 205 200 200 204 246 290 312 256 222 227 246 247 250 235 220 222 226 226 227 225 228 231 234 237 241 247 246 249 253
234 225 237 232 236 238 236 243 258 262 275 274 265 284 300 279 243 253 257 286 293 286 282 271 251 232 231 253 256 233 225 227 231 232 229 231 235 234 239 242 242 243 244 249
246 231 238 222 218 247 242 241 261 277 294 276 280 288 295 310 267 274 296 302 311 300 288 286 266 235 224 229 248 247 227 223 226 228 233 237 242 243 246 250 247 245 244 244
249 241 236 206 208 237 242 233 252 265 272 280 281 262 246 19 332 297 293 304 304 302 307 352 14 185 218 234 242 248 242 239 236 231 228 231 240 246 247 251 253 251 241 241
245 254 248 211 168 246 247 223 186 281 282 282 267 267 342 13 333 328 342 351 352 358 27 28 12 316 229 246 252 261 257 249 246 230 227 232 240 244 242 245 249 254 239 235
241 246 243 68 91 218 234 231 42 292 290 287 288 317 341 341 351 349 7 7 5 13 31 36 26 43 315 288 283 287 270 248 239 225 224 228 234 234 242 240 245 250 247 227
235 242 225 84 201 250 20 30 1 330 316 302 291 312 328 351 7 350 1 15 6 360 15 34 27 360 316 326 322 307 278 232 228 231 228 207 214 223 229 235 232 234 231 239
265 284 65 59 15 21 0 354 348 334 328 314 298 287 307 334 357 349 343 357 347 345 7 29 22 348 328 344 333 312 285 240 214 230 229 203 209 215 215 221 236 236 234 245
260 202 183 201 307 344 344 336 331 319 308 304 302 302 299 314 327 319 315 319 331 340 2 357 345 348 350 359 326 290 280 201 167 160 196 197 222 225 224 224 227 236 247 254
252 249 228 212 234 307 334 337 330 324 312 301 292 294 304 301 294 287 272 287 297 306 325 324 332 341 353 11 339 317 313 162 153 162 170 171 207 313 276 317 295 268 269 268
266 269 266 246 253 275 284 298 304 307 303 304 300 299 302 303 303 290 280 283 283 297 306 311 325 341 352 346 231 259 220 214 211 185 172 197 176 108 41 24 77 49 333 301
291 294 289 281 268 264 267 281 287 286 283 284 289 289 292 299 302 291 277 266 269 286 298 294 302 338 345 334 279 241 249 257 250 221 208 230 204 195 148 91 82 57 27 290
269 267 260 256 265 264 268 277 278 275 275 282 284 280 281 281 272 263 267 271 274 285 298 308 324 345 348 345 309 278 255 221 233 231 252 272 258 236 251 272 89 77 87 153
256 257 261 262 257 254 255 258 259 260 271 283 283 276 274 275 269 271 274 263 269 287 337 358 349 355 351 338 319 309 314 318 347 322 260 272 272 251 241 248 258 284 84 117
257 253 247 243 242 245 248 251 255 257 268 275 272 272 280 279 279 275 265 239 221 248 353 347 343 351 343 332 316 282 348 18 289 257 256 276 279 272 265 251 251 251 281 17
242 239 235 235 236 240 246 250 254 252 251 257 274 272 251 246 245 237 250 239 211 202 246 307 340 350 339 328 310 317 26 67 283 266 282 307 293 279 267 260 251 246 250 53
240 243 244 241 241 241 243 244 244 241 240 246 252 246 235 227 231 238 235 214 194 187 192 314 344 308 321 338 330 330 336 316 304 323 333 330 298 268 261 265 259 251 256 135
247 244 242 240 243 238 234 232 238 237 225 225 234 238 242 234 228 224 214 206 206 208 211 309 271 247 267 340 322 261 271 282 294 307 308 300 275 279 273 270 266 261 271 270
276 269 234 226 229 226 220 218 217 210 212 218 227 229 229 227 222 221 212 214 229 282 269 281 258 252 254 300 295 269 257 259 275 281 289 290 288 281 275 278 269 257 253 257
318 309 263 188 235 238 233 227 220 218 221 221 225 229 227 225 226 224 226 228 185 247 243 220 232 233 238 287 263 266 258 236 232 240 246 261 268 267 265 265 265 269 268 268
298 284 280 274 254 248 246 241 229 222 220 218 223 220 216 219 224 226 229 247 218 196 240 228 225 61 330 279 256 263 268 263 248 242 247 255 258 258 257 260 268 271 269 265
280 275 264 258 256 255 257 248 223 215 216 218 219 213 217 230 238 237 228 208 202 225 251 232 88 99 276 257 255 264 270 271 270 267 268 266 257 256 260 263 264 265 269 266
273 273 268 256 246 244 254 254 235 218 212 217 217 214 221 222 221 226 236 169 186 216 245 124 136 208 250 247 249 255 258 259 265 268 268 271 270 270 269 268 268 268 264 262
277 260 248 232 228 231 237 232 218 218 217 212 213 204 214 223 232 211 204 202 175 212 219 163 180 214 237 244 247 252 257 270 287 290 284 281 279 276 275 276 276 271 267 265
297 267 247 238 248 257 246 238 232 227 230 219 216 211 209 189 192 187 197 201 199 208 220 207 199 215 234 237 242 253 257 246 245 255 273 279 283 283 281 278 270 277 285 288
270 251 238 236 234 252 255 242 238 228 223 213 208 222 203 189 187 183 197 203 199 208 216 216 219 229 239 238 236 246 256 261 270 277 279 285 292 298 298 288 289 287 283 282